Location: Unspecified
(0.0000°N, 0.0000°E)
Time: 21:32:59
(UTC+00:00)

STARLINK-32799 - Pass Details

Date: 10 March 2026
Orbit: 482 x 484 km, 43.0° (Epoch: 11 April)

Event Time Altitude Azimuth Distance (km) Brightness Sun altitude
Rises 19:04:46 0° 249° (WSW) 2,538 ? -13.6°
Reaches altitude 10° 19:07:22 10° 266° (W) 1,654 ? -14.3°
Maximum altitude 19:10:11 20° 315° (NW) 1,164 ? -15.0°
Drops below altitude 10° 19:12:59 10° 4° (N) 1,646 ? -15.7°
Enters shadow 19:14:36 - 16° (NNE) 2,171 ? -16.1°
